Location: Newark
(48.7667°N, 7.9833°E)
Time: 12:59:11
(UTC+00:00)

PicSat - Visible Passes

Search period start: 16 September 2019 00:00
Search period end: 26 September 2019 00:00
Orbit: 487 x 498 km, 97.5° (Epoch: 15 September)

Date Brightness Start Highest point End Pass type
(mag) Time Alt. Az. Time Alt. Az. Time Alt. Az.
16 Sep ? 19:48:42 12° NE 19:48:42 12° NE 19:49:15 10° NNE visible
16 Sep ? 21:23:14 16° NNW 21:23:14 16° NNW 21:24:04 10° NNW visible
17 Sep ? 21:01:17 17° N 21:01:17 17° N 21:02:15 10° N visible
18 Sep ? 20:39:19 17° N 20:39:19 17° N 20:40:16 10° N visible
19 Sep ? 20:17:20 14° NNE 20:17:20 14° NNE 20:18:06 10° N visible
20 Sep ? 19:55:23 11° NNE 19:55:23 11° NNE 19:55:40 10° NNE visible
20 Sep ? 21:29:55 12° NNW 21:29:55 12° NNW 21:30:10 10° NNW visible
21 Sep ? 21:07:56 13° NNW 21:07:56 13° NNW 21:08:24 10° NNW visible
22 Sep ? 20:45:58 13° N 20:45:58 13° N 20:46:27 10° N visible
23 Sep ? 20:24:00 12° N 20:24:00 12° N 20:24:21 10° N visible
